Location: *
(46.1200°N, 11.2700°E)
Time: 05:47:56
(UTC+00:00)

ARGOS - Pass Details

Date: 02 March 2021
Orbit: 819 x 835 km, 98.4° (Epoch: 12 April)

Event Time Altitude Azimuth Distance (km) Brightness Sun altitude
Rises 18:07:21 0° 164° (SSE) 3,365 6.1 -12.0°
Reaches altitude 10° 18:09:41 10° 164° (SSE) 2,437 5.4 -12.4°
Maximum altitude 18:15:07 90° 103° (ESE) 842 3.2 -13.3°
Drops below altitude 10° 18:20:35 10° 346° (NNW) 2,458 5.9 -14.3°
Sets 18:22:57 0° 347° (NNW) 3,396 6.6 -14.7°
